[[{"header":{"parameterUnit":"m.s-1","parameterCategory":1,"la1":30.2991,"la2":30.254,"lo1":-89.0895,"lo2":-89.0444,"dy":0.0017,"dx":0.0017,"nx":28,"ny":28,"refTime":"2024-05-09T21:00:00:Z","depth":0,"parameterNumber":2,"parameterNumberName":"U-component_of_WINDS"},"data":[0,0,0,0,0,0,0,0,0,0,0,0,0,0,0,0,0,0,0,0,0,0,0,0,0,0,0,0,0,0,0,0,0,0,0,0,0,0,0,0,0,0,0,0,0,0,0,0,0,0,0,0,0,0,0,0,0,0,1.6313,1.6313,0,1.6394,1.6395,1.6395,1.6351,1.6348,1.6346,1.6344,1.6432,1.6437,1.6441,0,0,0,0,0,0,0,0,0,0,0,0,0,1.6124,1.6128,1.6313,1.6314,1.6315,1.6393,1.6395,1.6396,1.6351,1.6348,1.6345,1.6343,1.6431,1.6436,1.6441,0,0,0,0,0,0,0,0,0,0,0,0,0,1.6206,1.6129,1.6312,1.6302,1.6301,1.6393,1.6395,1.6396,1.6351,1.6348,1.6345,1.6342,1.6429,1.6436,1.6442,1.6551,0,0,1.6463,1.6465,0,0,0,0,0,0,0,0,1.6201,1.6213,1.6302,1.6302,1.6302,1.6358,1.636,1.6448,1.6352,1.6333,1.6344,1.634,1.6411,1.6419,1.6441,1.6555,1.6559,1.6463,1.6467,1.647,1.6472,0,0,0,0,0,0,0,1.6196,1.6209,1.6345,1.6304,1.6304,1.6294,1.6302,1.6377,1.639,1.6334,1.6331,1.6341,1.641,1.6435,1.6443,1.656,1.6463,1.6469,1.6473,1.6476,1.6767,1.6771,0,0,0,0,0,0,1.619,1.6205,1.6342,1.6347,1.6242,1.63,1.6309,1.6344,1.6389,1.6392,1.6344,1.6339,1.6425,1.6436,1.6446,1.6576,1.647,1.6476,1.648,1.6763,1.6768,1.6772,0,0,0,0,0,0,1.6186,1.6203,1.6339,1.6275,1.6292,1.6307,1.6347,1.6347,1.6372,1.6396,1.6399,1.6366,1.6423,1.6437,1.6525,1.6578,1.6479,1.6485,1.6759,1.6765,1.677,1.6837,0,0,0,0,0,0,1.6181,1.6201,1.6242,1.6276,1.6295,1.6415,1.635,1.6351,1.6383,1.6377,1.6418,1.6422,1.6422,1.6515,1.6531,1.6586,1.6491,1.6754,1.6762,1.6768,1.683,1.6844,1.6856,0,0,0,0,0,1.6174,1.6258,1.6244,1.6261,1.6345,1.6418,1.6429,1.6425,1.6388,1.6429,1.6444,1.642,1.657,1.6524,1.6542,1.66,1.6751,1.6759,1.6768,1.6824,1.6841,1.6856,0,0,0,0,0,0,1.6231,1.6263,1.6247,1.6344,1.6379,1.641,1.6462,1.6444,1.6491,1.6483,1.6479,1.6489,1.658,1.6599,1.6547,1.6707,1.6655,1.6667,1.6691,1.6708,1.6721,1.6714,1.6496,0,0,0,0,0,1.6255,1.6309,1.6335,1.6418,1.6436,1.6446,1.6478,1.6472,1.6508,1.6523,1.6544,1.6582,1.6637,1.6674,1.6726,1.6833,1.6841,1.6881,1.6894,1.6905,1.6916,1.6974,1.6992,1.68,1.68,1.6799,0,0,1.6305,1.6329,1.6364,1.643,1.6456,1.6514,1.6459,1.6522,1.6566,1.6533,1.6616,1.6634,1.6676,1.6773,1.6817,1.6792,1.6971,1.6916,1.6924,1.6929,1.6984,1.7002,1.7018,1.6805,1.6804,1.6803,0,0,1.6425,1.6449,1.6521,1.6547,1.6586,1.6593,1.661,1.6645,1.6654,1.6738,1.6714,1.6767,1.6863,1.6893,1.6921,1.7053,1.7033,1.7071,1.7139,1.7196,1.7211,1.7224,1.7271,1.7288,1.7082,1.7082,1.7082,0,1.6483,1.6567,1.656,1.6626,1.6656,1.6627,1.6701,1.6728,1.6783,1.6806,1.6776,1.6895,1.6921,1.7025,1.7057,1.7081,1.7102,1.7066,1.7209,1.7222,1.7235,1.728,1.7297,1.7086,1.7086,1.7085,1.7085,0,1.6636,1.6695,1.6749,1.6801,1.6837,1.6907,1.6912,1.695,1.6942,1.6952,1.7038,1.7068,1.7126,1.7151,1.7144,1.7255,1.7237,1.7209,1.7155,1.7257,1.7299,1.7317,1.7092,1.7091,1.7089,1.7088,0,0,1.6793,1.684,1.686,1.6883,1.6925,1.6971,1.704,1.7095,1.7128,1.7168,1.7226,1.7307,1.7281,1.7313,1.7309,1.7359,1.7462,1.7324,1.7325,1.7348,1.7586,1.7607,1.7627,1.7449,1.7452,1.7455,1.7582,0,1.6916,1.7033,1.703,1.714,1.7195,1.7169,1.7229,1.7262,1.7274,1.7323,1.7337,1.7394,1.7355,1.7374,1.7422,1.7439,1.7509,1.743,1.7504,1.7507,1.7493,1.7649,1.7671,1.7789,1.7599,1.7601,1.7604,0,1.7074,1.7116,1.7232,1.7265,1.7288,1.7342,1.7392,1.7439,1.7477,1.7482,1.7517,1.7506,1.7578,1.7523,1.7622,1.7568,1.7599,1.7612,1.7616,1.7622,1.7561,1.7659,1.7827,1.7845,1.7629,1.7627,1.7626,0,1.7176,1.7263,1.7343,1.7364,1.7405,1.7443,1.7463,1.7496,1.753,1.7575,1.7596,1.765,1.7679,1.7721,1.7726,1.7685,1.7826,1.7771,1.7832,1.7833,1.7862,1.786,1.8037,1.7883,1.7883,1.7883,1.7882,0,1.7313,1.7384,1.7389,1.7439,1.7519,1.7515,1.7595,1.7611,1.7641,1.7694,1.7677,1.7727,1.773,1.7782,1.7787,1.7868,1.7882,1.7889,1.7889,1.789,1.7889,1.7909,1.7901,1.7887,1.7886,1.7886,1.7885,0,1.744,1.7447,1.7532,1.7564,1.7573,1.7631,1.7659,1.7707,1.7716,1.7784,1.78,1.7816,1.7877,1.7885,1.7958,1.796,1.8058,1.805,1.8045,1.8043,1.8104,1.8098,1.83,1.8326,1.8155,1.8157,1.8158,0,1.7526,1.758,1.7617,1.7651,1.7672,1.7726,1.7759,1.7759,1.7795,1.7842,1.7884,1.7943,1.799,1.8089,1.8108,1.8163,1.8156,1.8223,1.8164,1.8164,1.8157,1.8153,1.8159,1.8234,1.8236,1.8238,1.8239,0,1.7678,1.7679,1.7727,1.7776,1.7816,1.7856,1.7893,1.7922,1.7926,1.7968,1.8029,1.8065,1.8138,1.8197,1.8252,1.8273,1.8258,1.8257,1.8274,1.8276,1.827,1.8273,1.8075,1.8252,1.8251,1.825,1.8249,1.8249,1.7787,1.7834,1.7867,1.7922,1.7949,1.7985,1.8031,1.8046,1.8096,1.8154,1.8151,1.8219,1.8256,1.8328,1.8353,1.8407,1.8386,1.841,1.8417,1.8423,1.8428,1.8262,1.8417,1.8417,1.8417,1.8416,1.8416,0,1.7938,1.7958,1.8008,1.806,1.8103,1.8083,1.8123,1.8161,1.822,1.8255,1.8301,1.8372,1.8429,1.8453,1.851,1.8549,1.8543,1.8563,1.856,1.8566,1.8445,1.8424,1.8567,1.8567,1.8567,1.8567,1.8567,1.8567,1.8021,1.8099,1.8104,1.8196,1.8216,1.8281,1.8305,1.8338,1.8366,1.8445,1.8492,1.8507,1.8538,1.8597,1.8649,1.8655,1.8677,1.8701,1.8703,1.859,1.8574,1.856,1.854,1.8706,1.8706,1.882,1.8821,1.8822]},{"header":{"parameterUnit":"m.s-1","parameterCategory":1,"la1":30.2991,"la2":30.254,"lo1":-89.0895,"lo2":-89.0444,"dy":0.0017,"dx":0.0017,"nx":28,"ny":28,"refTime":"2024-05-09T21:00:00:Z","depth":0,"parameterNumber":3,"parameterNumberName":"V-component_of_WINDS"},"data":[0,0,0,0,0,0,0,0,0,0,0,0,0,0,0,0,0,0,0,0,0,0,0,0,0,0,0,0,0,0,0,0,0,0,0,0,0,0,0,0,0,0,0,0,0,0,0,0,0,0,0,0,0,0,0,0,0,0,2.7988,2.7989,0,2.8073,2.8074,2.8075,2.8074,2.8073,2.8072,2.8071,2.8154,2.8157,2.816,0,0,0,0,0,0,0,0,0,0,0,0,0,2.782,2.7823,2.7988,2.7989,2.799,2.8073,2.8074,2.8075,2.8074,2.8073,2.8072,2.8071,2.8153,2.8156,2.816,0,0,0,0,0,0,0,0,0,0,0,0,0,2.7898,2.7824,2.7987,2.8,2.8001,2.8073,2.8074,2.8076,2.8075,2.8073,2.8071,2.807,2.8151,2.8156,2.8161,2.8224,0,0,2.8176,2.8178,0,0,0,0,0,0,0,0,2.7893,2.7904,2.7997,2.7999,2.8001,2.8061,2.8045,2.8125,2.8075,2.8047,2.8071,2.8069,2.8124,2.8131,2.815,2.8228,2.8231,2.8176,2.8179,2.8181,2.8182,0,0,0,0,0,0,0,2.7888,2.79,2.8021,2.7998,2.8001,2.7999,2.8009,2.806,2.8093,2.8049,2.8049,2.806,2.8125,2.8146,2.8152,2.8233,2.8176,2.818,2.8183,2.8185,2.8367,2.8368,0,0,0,0,0,0,2.7881,2.7896,2.8019,2.8024,2.7942,2.8004,2.8014,2.8044,2.8093,2.8099,2.8061,2.8059,2.8138,2.8147,2.8155,2.8233,2.8181,2.8186,2.8188,2.8365,2.8367,2.8369,0,0,0,0,0,0,2.7877,2.7892,2.8015,2.796,2.7976,2.8008,2.8042,2.8046,2.8067,2.8102,2.8107,2.8077,2.8137,2.8148,2.8207,2.8236,2.8188,2.8192,2.8362,2.8365,2.8368,2.8389,0,0,0,0,0,0,2.7872,2.789,2.7916,2.796,2.7978,2.8067,2.8043,2.8049,2.8076,2.8075,2.8118,2.8124,2.8137,2.82,2.8212,2.8242,2.8196,2.836,2.8364,2.8367,2.8386,2.8392,2.8397,0,0,0,0,0,2.7866,2.7917,2.7917,2.7932,2.8011,2.8069,2.8079,2.8094,2.8079,2.8104,2.8126,2.8122,2.8231,2.8206,2.822,2.8251,2.8358,2.8363,2.8367,2.8383,2.8391,2.8397,0,0,0,0,0,0,2.7872,2.7923,2.7923,2.799,2.8026,2.8069,2.8101,2.8102,2.8141,2.8138,2.8154,2.8164,2.8223,2.8243,2.8214,2.8315,2.8292,2.83,2.83,2.8308,2.8313,2.8307,2.82,0,0,0,0,0,2.7882,2.7926,2.7967,2.8022,2.804,2.8067,2.8093,2.8102,2.8139,2.8153,2.818,2.8214,2.8256,2.8283,2.8323,2.8389,2.8398,2.8417,2.8423,2.8427,2.8433,2.847,2.8479,2.8383,2.8383,2.8383,0,0,2.7901,2.7934,2.7961,2.8024,2.8053,2.8097,2.808,2.8127,2.816,2.8159,2.8218,2.8238,2.8277,2.834,2.8369,2.8358,2.8462,2.8433,2.8436,2.844,2.8475,2.8484,2.8492,2.8386,2.8386,2.8385,0,0,2.7959,2.7989,2.8039,2.8068,2.8112,2.813,2.8142,2.8185,2.8199,2.8258,2.8259,2.8297,2.8369,2.8397,2.8421,2.8491,2.8488,2.8503,2.8533,2.8569,2.8576,2.8583,2.8608,2.8617,2.8509,2.8509,2.8509,0,2.7977,2.8046,2.8063,2.8112,2.8139,2.8143,2.8193,2.822,2.8274,2.8292,2.828,2.8371,2.8397,2.8467,2.8484,2.8503,2.8516,2.8498,2.8574,2.8581,2.8587,2.8612,2.8621,2.851,2.851,2.851,2.851,0,2.8066,2.8113,2.8148,2.8202,2.8233,2.8282,2.8306,2.8335,2.8342,2.8361,2.8421,2.8453,2.85,2.8517,2.8523,2.8588,2.858,2.8571,2.8548,2.8598,2.8621,2.863,2.8513,2.8512,2.8512,2.8511,0,0,2.8129,2.8194,2.8207,2.8232,2.8281,2.8317,2.8365,2.8413,2.8438,2.8475,2.8516,2.8577,2.857,2.8596,2.8605,2.8637,2.869,2.8624,2.8625,2.8635,2.8763,2.877,2.8781,2.8689,2.8691,2.8692,2.876,0,2.8193,2.8281,2.8299,2.8375,2.8419,2.8423,2.8465,2.8499,2.8519,2.8557,2.8578,2.8621,2.8608,2.8624,2.8655,2.8677,2.8716,2.8672,2.8726,2.8728,2.8717,2.8793,2.88,2.8862,2.8769,2.8771,2.8772,0,2.8279,2.832,2.8401,2.8445,2.8464,2.8502,2.8548,2.8585,2.8624,2.8635,2.8666,2.8672,2.8722,2.8697,2.8765,2.8735,2.8758,2.8772,2.8775,2.8781,2.8753,2.88,2.8882,2.8892,2.8786,2.8785,2.8784,0,2.8317,2.8393,2.8452,2.8473,2.8526,2.8552,2.8575,2.8612,2.864,2.868,2.8698,2.8742,2.8766,2.8799,2.8817,2.8797,2.8884,2.886,2.8894,2.8894,2.8912,2.891,2.8999,2.8926,2.8926,2.8926,2.8926,0,2.8386,2.8435,2.847,2.8506,2.8561,2.8581,2.8634,2.8656,2.869,2.8729,2.8735,2.8772,2.8792,2.8832,2.8845,2.89,2.891,2.892,2.8924,2.892,2.8919,2.8935,2.8931,2.8929,2.8928,2.8928,2.8927,0,2.8438,2.8464,2.8528,2.8573,2.8586,2.8625,2.8663,2.8697,2.8717,2.8767,2.878,2.881,2.8857,2.8878,2.8934,2.8944,2.9006,2.9006,2.8994,2.8995,2.9027,2.9024,2.9129,2.9144,2.9062,2.9063,2.9063,0,2.8481,2.8519,2.857,2.8598,2.8622,2.8666,2.8696,2.8716,2.8746,2.8793,2.8822,2.8869,2.8908,2.8983,2.9009,2.9052,2.9053,2.9087,2.906,2.9055,2.9054,2.9052,2.9056,2.9092,2.9093,2.9093,2.9094,0,2.8553,2.8564,2.8607,2.8655,2.869,2.8728,2.8765,2.8787,2.8813,2.8847,2.8896,2.8926,2.8986,2.9032,2.9078,2.91,2.9101,2.9103,2.9113,2.911,2.9101,2.9107,2.9007,2.91,2.9099,2.9099,2.9099,2.9098,2.8602,2.8637,2.8678,2.8726,2.8757,2.8792,2.8827,2.8852,2.8893,2.8945,2.8954,2.9006,2.9043,2.9105,2.9129,2.9169,2.9161,2.9175,2.9179,2.9182,2.9184,2.9095,2.9177,2.9177,2.9177,2.9177,2.9177,0,2.8675,2.8702,2.8746,2.8799,2.8837,2.8837,2.8878,2.8909,2.8956,2.8992,2.9031,2.9087,2.9133,2.9163,2.9209,2.9235,2.9237,2.9246,2.9245,2.925,2.9189,2.9176,2.9244,2.9244,2.9244,2.9244,2.9244,2.9244,2.8718,2.8777,2.8793,2.8867,2.8893,2.8946,2.897,2.9002,2.9031,2.9094,2.9133,2.9153,2.9187,2.9235,2.9277,2.9284,2.9301,2.9311,2.9318,2.9261,2.9254,2.9247,2.9235,2.9314,2.9315,2.9375,2.9376,2.9376]}]]